Retour au catalogue

STARLINK-4662

ActifCommunicationsVLEO
NORAD 53738·PAYLOAD·🇺🇸 United States

Lancé Sep 5, 2022 depuis Cape Canaveral Space Force Station

Loading…

Prochains Passages (prochaines 24 heures)

TLE

FraisSource: CelesTrak SupGP

Époque: Sep 14, 2026, 21:04 UTC

1 53738C 22107AQ  26257.87826389 -.00019154  00000+0 -56607-3 0  2576
2 53738  53.1559 119.9344 0001345  89.4235  55.3859 15.34390413    10

Suivez STARLINK-4662 en temps réel avec AllMySat

Download on the App Store